FW3337 Weather Reports


Display with metric or nautical units.
time (UTC)temp
F
wind
direction
speed
MPH
gust
MPH
rain 1hr
in
rain 24hr
in
rain mn
in
humidity
%
barometer
mb
20260507203054 61 339 4.0 10.0 0.00 0.13 0.10 36 1007.4
20260507201610 62 320 2.0 12.0 0.00 0.13 0.10 37 1007.2
20260507194555 62 268 3.0 6.0 0.00 0.19 0.10 36 1007.4
20260507193049 62 293 3.0 10.0 0.00 0.19 0.10 38 1007.6
20260507191551 62 353 4.0 10.0 0.00 0.19 0.10 36 1007.9
20260507190045 62 278 2.0 10.0 0.00 0.19 0.10 36 1008.1
20260507184543 61 320 4.0 12.0 0.00 0.23 0.10 36 1008.0
20260507183042 61 293 3.0 8.0 0.00 0.23 0.10 36 1008.2
20260507181541 61 334 3.0 9.0 0.00 0.23 0.10 40 1008.4
20260507180045 60 41 2.0 5.0 0.00 0.23 0.10 39 1008.5
20260507174540 60 236 0.0 7.0 0.00 0.24 0.10 39 1008.5
20260507173039 60 267 3.0 8.0 0.00 0.24 0.10 38 1008.9
20260507171538 60 299 2.0 9.0 0.00 0.24 0.10 39 1009.2
20260507170037 60 309 1.0 6.0 0.00 0.24 0.10 38 1009.4
20260507164535 60 308 2.0 8.0 0.00 0.28 0.10 40 1009.5
20260507163032 58 26 2.0 11.0 0.00 0.28 0.10 39 1009.6
20260507161531 58 302 2.0 8.0 0.00 0.28 0.10 42 1009.8
20260507160034 58 355 2.0 9.0 0.00 0.28 0.10 40 1010.0
20260507154530 57 262 3.0 12.0 0.00 0.28 0.10 44 1010.1
20260507153033 57 353 2.0 6.0 0.00 0.28 0.10 43 1010.3
20260507151525 56 83 1.0 12.0 0.00 0.28 0.10 42 1010.5
20260507150023 56 360 2.0 5.0 0.00 0.28 0.10 44 1010.7
20260507144523 56 299 2.0 8.0 0.00 0.28 0.10 45 1010.6
20260507143026 56 315 3.0 6.0 0.00 0.28 0.10 46 1010.6
20260507141519 55 29 2.0 5.0 0.00 0.28 0.10 52 1010.6
20260507140024 54 15 2.0 12.0 0.00 0.28 0.10 53 1010.6
20260507134514 54 291 3.0 6.0 0.00 0.28 0.10 55 1010.6
20260507133011 53 47 1.0 5.0 0.00 0.28 0.10 57 1010.7
20260507131508 52 27 2.0 5.0 0.00 0.28 0.10 60 1010.4
20260507130007 51 339 1.0 5.0 0.00 0.28 0.10 63 1010.5
20260507124512 52 289 1.0 6.0 0.00 0.28 0.10 67 1010.4
20260507123004 51 318 1.0 4.0 0.00 0.28 0.10 75 1010.3
20260507121502 50 306 1.0 3.0 0.00 0.28 0.10 85 1010.4
20260507120001 48 334 2.0 8.0 0.00 0.28 0.10 89 1010.5
20260507114600 47 310 0.0 3.0 0.00 0.28 0.10 91 1010.3
20260507113058 47 316 1.0 3.0 0.00 0.28 0.10 91 1010.2
20260507111557 47 258 0.0 3.0 0.00 0.28 0.10 91 1010.1
20260507110057 47 294 0.0 4.0 0.00 0.28 0.10 92 1009.9
20260507104554 47 242 0.0 3.0 0.00 0.28 0.10 92 1009.7
20260507103052 47 242 0.0 1.0 0.00 0.28 0.10 93 1009.6
20260507101603 47 242 0.0 2.0 0.00 0.28 0.10 93 1009.1
20260507100050 47 295 0.0 0.0 0.00 0.28 0.10 93 1008.9
20260507094558 47 295 0.0 0.0 0.00 0.28 0.10 93 1009.0
20260507093048 47 295 0.0 1.0 0.00 0.28 0.10 93 1008.8
20260507091559 47 295 0.0 4.0 0.00 0.28 0.10 92 1008.8
20260507090106 47 293 1.0 8.0 0.00 0.28 0.10 92 1009.0
20260507084545 47 300 0.0 5.0 0.00 0.28 0.10 93 1008.9
20260507083045 48 294 0.0 0.0 0.00 0.28 0.10 93 1008.9
20260507081552 48 294 0.0 2.0 0.01 0.28 0.10 93 1009.1
20260507080042 48 294 0.0 2.0 0.01 0.28 0.10 93 1009.1
20260507074542 48 334 1.0 4.0 0.04 0.28 0.10 93 1009.1
20260507073054 48 299 2.0 5.0 0.06 0.28 0.10 92 1009.2
20260507071538 48 310 0.0 5.0 0.07 0.27 0.09 92 1008.9
20260507070051 48 280 1.0 4.0 0.07 0.27 0.09 92 1008.9
20260507064534 49 289 1.0 4.0 0.06 0.24 0.06 92 1009.0
20260507063031 49 310 1.0 4.0 0.04 0.22 0.04 91 1008.6
20260507061532 50 311 0.0 2.0 0.02 0.20 0.02 90 1009.1
20260507060029 51 314 0.0 3.0 0.02 0.20 0.02 88 1008.5
20260507054523 51 314 0.0 4.0 0.00 0.18 0.00 88 1008.6
20260507053019 52 305 0.0 4.0 0.00 0.18 0.00 86 1008.0
20260507051517 52 306 2.0 5.0 0.00 0.18 0.00 85 1008.2
20260507050028 52 320 1.0 10.0 0.00 0.18 0.00 84 1008.3
20260507044531 53 314 2.0 5.0 0.00 0.18 0.00 83 1008.3
20260507043013 53 288 0.0 5.0 0.00 0.18 0.00 84 1008.4
20260507041513 53 262 0.0 5.0 0.00 0.18 0.00 84 1008.4
20260507040010 53 264 3.0 7.0 0.00 0.18 0.18 84 1008.2
20260507034508 53 134 0.0 5.0 0.00 0.18 0.18 86 1008.3
20260507033009 53 283 2.0 5.0 0.00 0.18 0.18 84 1007.9
20260507031506 54 208 1.0 7.0 0.00 0.18 0.18 86 1008.0
20260507030005 54 228 2.0 6.0 0.00 0.18 0.18 88 1008.1
20260507024503 54 283 0.0 9.0 0.00 0.18 0.18 87 1008.4
20260507023002 54 232 0.0 5.0 0.00 0.18 0.18 88 1008.4
20260507021502 55 305 0.0 4.0 0.00 0.18 0.18 88 1008.4
20260507020200 55 322 1.0 7.0 0.00 0.18 0.18 89 1008.3
20260507014615 55 258 0.0 4.0 0.02 0.18 0.18 90 1008.0
20260507013056 56 274 0.0 4.0 0.03 0.18 0.18 91 1007.8
20260507011554 56 314 1.0 8.0 0.03 0.18 0.18 90 1007.9
20260507010101 59 296 0.0 6.0 0.03 0.18 0.18 93 1007.6
20260507004549 61 275 2.0 4.0 0.01 0.16 0.16 95 1007.0
20260507003048 61 212 0.0 0.0 0.00 0.15 0.15 94 1006.5
20260507001551 61 212 0.0 0.0 0.00 0.15 0.15 94 1006.5
20260507000046 61 212 0.0 0.0 0.00 0.15 0.15 94 1006.6
20260506234545 61 212 0.0 0.0 0.00 0.15 0.15 94 1006.3
20260506233047 61 212 0.0 0.0 0.00 0.15 0.15 94 1006.1
20260506231545 61 212 0.0 0.0 0.00 0.15 0.15 94 1006.2
20260506230044 61 212 0.0 2.0 0.00 0.15 0.15 93 1006.2
20260506224544 61 183 1.0 4.0 0.00 0.15 0.15 93 1006.1
20260506223043 61 220 1.0 5.0 0.00 0.15 0.15 94 1006.0
20260506221545 61 253 0.0 4.0 0.00 0.15 0.15 94 1005.8
20260506220043 61 210 0.0 4.0 0.00 0.15 0.15 94 1005.8
20260506214545 61 235 0.0 2.0 0.00 0.15 0.15 94 1005.8
20260506213041 61 218 0.0 4.0 0.00 0.15 0.15 94 1005.7
20260506211541 61 220 0.0 3.0 0.00 0.15 0.15 94 1005.5
20260506210043 61 266 1.0 5.0 0.00 0.15 0.15 94 1005.4
20260506204539 61 226 0.0 5.0 0.01 0.15 0.15 94 1005.1